This is the latest recevied weather packets stored in our database for station/object SQ9SMC-13. If no packets are shown the sender has not sent any weather packets the latest 10 day(s).
| Time | Temp. | Humidity | Pressure | Rain* | Wind** | Luminosity | Snow |
|---|---|---|---|---|---|---|---|
| 1777297805 | 15° C | 27% | 1023.2 hPa | 0 mm | - | 423 W/m² | - |
| 1777297503 | 15° C | 28% | 1023.3 hPa | 0 mm | - | 435 W/m² | - |
| 1777297204 | 15° C | 29% | 1023.3 hPa | 0 mm | - | 448 W/m² | - |
| 1777296904 | 15° C | 29% | 1023.6 hPa | 0 mm | - | 460 W/m² | - |
| 1777296604 | 15° C | 28% | 1023.4 hPa | 0 mm | - | 470 W/m² | - |
| 1777296304 | 15° C | 29% | 1023.4 hPa | 0 mm | - | 480 W/m² | - |
| 1777296005 | 14.44° C | 26% | 1023.6 hPa | 0 mm | - | 488 W/m² | - |
| 1777295704 | 14.44° C | 25% | 1023.6 hPa | 0 mm | - | 497 W/m² | - |
| 1777295404 | 15° C | 27% | 1023.5 hPa | 0 mm | - | 507 W/m² | - |
| 1777295104 | 14.44° C | 25% | 1023.7 hPa | 0 mm | - | 517 W/m² | - |
| 1777294805 | 14.44° C | 25% | 1023.5 hPa | 0 mm | - | 528 W/m² | - |
| 1777294505 | 14.44° C | 27% | 1023.7 hPa | 0 mm | - | 537 W/m² | - |
| 1777294203 | 14.44° C | 27% | 1023.7 hPa | 0 mm | - | 545 W/m² | - |
| 1777293905 | 15° C | 30% | 1023.9 hPa | 0 mm | - | 551 W/m² | - |
| 1777293603 | 14.44° C | 26% | 1023.8 hPa | 0 mm | - | 560 W/m² | - |
| 1777293304 | 14.44° C | 27% | 1023.9 hPa | 0 mm | - | 566 W/m² | - |
| 1777293002 | 15° C | 27% | 1023.7 hPa | 0 mm | - | 571 W/m² | - |
| 1777292703 | 14.44° C | 27% | 1023.7 hPa | 0 mm | - | 578 W/m² | - |
| 1777292404 | 14.44° C | 28% | 1024.1 hPa | 0 mm | - | 585 W/m² | - |
| 1777292103 | 14.44° C | 27% | 1024.1 hPa | 0 mm | - | 591 W/m² | - |
| 1777291803 | 14.44° C | 27% | 1023.9 hPa | 0 mm | - | 596 W/m² | - |
| 1777291505 | 13.89° C | 29% | 1024 hPa | 0 mm | - | 602 W/m² | - |
| 1777291203 | 13.89° C | 27% | 1024.2 hPa | 0 mm | - | 606 W/m² | - |
| 1777290903 | 13.89° C | 29% | 1024.2 hPa | 0 mm | - | 613 W/m² | - |
| 1777290603 | 14.44° C | 26% | 1024.1 hPa | 0 mm | - | 617 W/m² | - |
* Rain latest hour (hover to see other rain measurements)
** Current wind speed in m/s (hover to see current wind gust speed)